When you browse on this site, cookies collect data to enhance your experience and personalize the content and advertising you see.
Visit our Privacy Policy to learn more. By continuing to use the site, you agree to this use of cookies and data.
  • în România
  • Lista ţărilor
  • Pe 7 zile
  • Temperatura apei
  • Meteo pe hartă
  • Widget-uri
  • user-avatar
    Intrare

    Meteo pe oră la Lewis

    Astăzi, 25 Mai, Luni

    Timp Temperatura Precipitaţii Vânt Presiune Umiditate
    00:00 +7°C° 0 mm 8 m/s 759 mmHg 93%
    01:00 +7°C° 0 mm 8 m/s 759 mmHg 92%
    02:00 +7°C° 0 mm 8 m/s 759 mmHg 91%
    03:00 +7°C° 0 mm 9 m/s 759 mmHg 90%
    04:00 +8°C° 0 mm 9 m/s 759 mmHg 86%
    05:00 +8°C° 0 mm 9 m/s 759 mmHg 82%
    06:00 +9°C° 0 mm 10 m/s 759 mmHg 78%
    07:00 +9°C° 0 mm 10 m/s 758 mmHg 73%
    08:00 +11°C° 0 mm 10 m/s 758 mmHg 68%
    09:00 +11°C° 0 mm 11 m/s 758 mmHg 63%
    10:00 +12°C° 0 mm 11 m/s 758 mmHg 62%
    11:00 +12°C° 0 mm 12 m/s 758 mmHg 61%
    12:00 +12°C° 0 mm 12 m/s 757 mmHg 58%
    13:00 +12°C° 0.2 mm 12 m/s 757 mmHg 65%
    14:00 +10°C° 0.2 mm 13 m/s 757 mmHg 73%
    15:00 +9°C° 0.2 mm 13 m/s 757 mmHg 80%
    16:00 +9°C° 0.2 mm 11 m/s 758 mmHg 83%
    17:00 +9°C° 0.2 mm 10 m/s 758 mmHg 86%
    18:00 +10°C° 0.2 mm 8 m/s 758 mmHg 89%
    19:00 +9°C° 0 mm 8 m/s 759 mmHg 90%
    20:00 +9°C° 0 mm 7 m/s 759 mmHg 90%
    21:00 +8°C° 0 mm 6 m/s 760 mmHg 90%
    22:00 +8°C° 0 mm 7 m/s 760 mmHg 91%
    23:00 +6°C° 0 mm 7 m/s 760 mmHg 91%

    Mâine, 26 Mai, Marţi

    Timp Temperatura Precipitaţii Vânt Presiune Umiditate
    00:00 +6°C° 0 mm 7 m/s 760 mmHg 92%
    01:00 +6°C° 0 mm 7 m/s 761 mmHg 92%
    02:00 +6°C° 0 mm 7 m/s 761 mmHg 92%
    03:00 +6°C° 0 mm 8 m/s 761 mmHg 92%
    04:00 +6°C° 0 mm 8 m/s 762 mmHg 90%
    05:00 +7°C° 0 mm 8 m/s 762 mmHg 88%
    06:00 +9°C° 0 mm 8 m/s 762 mmHg 86%
    07:00 +9°C° 0.1 mm 8 m/s 763 mmHg 82%
    08:00 +10°C° 0.1 mm 8 m/s 763 mmHg 79%
    09:00 +10°C° 0.1 mm 8 m/s 764 mmHg 75%
    10:00 +10°C° 0.1 mm 8 m/s 764 mmHg 74%
    11:00 +10°C° 0.1 mm 8 m/s 764 mmHg 72%
    12:00 +10°C° 0.1 mm 8 m/s 764 mmHg 71%
    13:00 +10°C° 0 mm 8 m/s 765 mmHg 69%
    14:00 +10°C° 0 mm 8 m/s 765 mmHg 67%
    15:00 +10°C° 0 mm 8 m/s 765 mmHg 64%
    16:00 +10°C° 0 mm 8 m/s 765 mmHg 66%
    17:00 +10°C° 0 mm 7 m/s 765 mmHg 68%
    18:00 +9°C° 0 mm 7 m/s 765 mmHg 70%
    19:00 +9°C° 0 mm 7 m/s 766 mmHg 74%
    20:00 +8°C° 0 mm 7 m/s 766 mmHg 78%
    21:00 +7°C° 0 mm 6 m/s 766 mmHg 83%
    22:00 +7°C° 0 mm 6 m/s 766 mmHg 85%
    23:00 +7°C° 0 mm 6 m/s 767 mmHg 86%

    Poimâine, 27 Mai, Miercuri

    Timp Temperatura Precipitaţii Vânt Presiune Umiditate
    00:00 +7°C° 0 mm 6 m/s 767 mmHg 88%
    01:00 +7°C° 0 mm 6 m/s 767 mmHg 89%
    02:00 +6°C° 0 mm 5 m/s 767 mmHg 90%
    03:00 +6°C° 0 mm 5 m/s 767 mmHg 91%
    04:00 +7°C° 0 mm 5 m/s 767 mmHg 88%
    05:00 +7°C° 0 mm 4 m/s 767 mmHg 84%
    06:00 +8°C° 0 mm 4 m/s 767 mmHg 80%
    07:00 +8°C° 0 mm 4 m/s 767 mmHg 76%
    08:00 +10°C° 0 mm 4 m/s 767 mmHg 71%
    09:00 +10°C° 0 mm 4 m/s 768 mmHg 67%
    10:00 +11°C° 0 mm 4 m/s 767 mmHg 66%
    11:00 +12°C° 0 mm 4 m/s 767 mmHg 64%
    12:00 +12°C° 0 mm 4 m/s 767 mmHg 63%
    13:00 +12°C° 0 mm 5 m/s 767 mmHg 63%
    14:00 +12°C° 0 mm 5 m/s 767 mmHg 64%
    15:00 +13°C° 0 mm 5 m/s 767 mmHg 65%
    16:00 +12°C° 0 mm 5 m/s 767 mmHg 67%
    17:00 +10°C° 0 mm 5 m/s 766 mmHg 69%
    18:00 +10°C° 0 mm 5 m/s 766 mmHg 72%
    19:00 +9°C° 0.7 mm 5 m/s 765 mmHg 77%
    20:00 +8°C° 0.7 mm 5 m/s 765 mmHg 82%
    21:00 +8°C° 0.7 mm 5 m/s 765 mmHg 87%
    22:00 +8°C° 1 mm 5 m/s 764 mmHg 89%
    23:00 +8°C° 1 mm 6 m/s 764 mmHg 92%

    28 Mai, Joi

    Timp Temperatura Precipitaţii Vânt Presiune Umiditate
    00:00 +8°C° 1 mm 7 m/s 764 mmHg 94%
    01:00 +9°C° 0.2 mm 6 m/s 763 mmHg 95%
    02:00 +9°C° 0.2 mm 6 m/s 763 mmHg 95%
    03:00 +10°C° 0.2 mm 6 m/s 763 mmHg 95%
    04:00 +10°C° 0 mm 6 m/s 763 mmHg 95%
    05:00 +10°C° 0 mm 6 m/s 763 mmHg 94%
    06:00 +10°C° 0 mm 6 m/s 763 mmHg 93%
    07:00 +12°C° 0 mm 5 m/s 763 mmHg 93%
    08:00 +12°C° 0 mm 5 m/s 763 mmHg 92%
    09:00 +12°C° 0 mm 5 m/s 763 mmHg 91%
    10:00 +13°C° 0 mm 4 m/s 763 mmHg 89%
    11:00 +13°C° 0 mm 4 m/s 763 mmHg 87%
    12:00 +14°C° 0 mm 4 m/s 763 mmHg 85%
    13:00 +15°C° 0 mm 4 m/s 763 mmHg 83%
    14:00 +15°C° 0 mm 4 m/s 763 mmHg 80%
    15:00 +17°C° 0 mm 4 m/s 763 mmHg 77%
    16:00 +17°C° 0 mm 3 m/s 763 mmHg 76%
    17:00 +17°C° 0 mm 3 m/s 763 mmHg 75%
    18:00 +17°C° 0 mm 3 m/s 762 mmHg 75%
    19:00 +16°C° 0 mm 3 m/s 762 mmHg 77%
    20:00 +14°C° 0 mm 3 m/s 762 mmHg 78%
    21:00 +14°C° 0 mm 2 m/s 762 mmHg 80%
    22:00 +12°C° 0 mm 3 m/s 761 mmHg 81%
    23:00 +12°C° 0 mm 3 m/s 761 mmHg 82%

    29 Mai, Vineri

    Timp Temperatura Precipitaţii Vânt Presiune Umiditate
    00:00 +12°C° 0 mm 3 m/s 761 mmHg 83%
    01:00 +12°C° 0 mm 3 m/s 761 mmHg 84%
    02:00 +12°C° 0 mm 3 m/s 760 mmHg 86%
    03:00 +12°C° 0 mm 3 m/s 760 mmHg 87%
    04:00 +12°C° 0 mm 4 m/s 760 mmHg 84%
    05:00 +13°C° 0 mm 4 m/s 760 mmHg 82%
    06:00 +14°C° 0 mm 4 m/s 759 mmHg 79%
    07:00 +15°C° 0 mm 4 m/s 759 mmHg 74%
    08:00 +16°C° 0 mm 5 m/s 759 mmHg 70%
    09:00 +17°C° 0 mm 5 m/s 759 mmHg 65%
    10:00 +19°C° 0 mm 5 m/s 759 mmHg 63%
    11:00 +20°C° 0 mm 5 m/s 758 mmHg 61%
    12:00 +20°C° 0 mm 5 m/s 758 mmHg 59%
    13:00 +20°C° 0 mm 6 m/s 758 mmHg 58%
    14:00 +20°C° 0 mm 6 m/s 758 mmHg 58%
    15:00 +20°C° 0 mm 6 m/s 758 mmHg 57%
    16:00 +20°C° 0 mm 6 m/s 757 mmHg 57%
    17:00 +19°C° 0 mm 6 m/s 757 mmHg 58%
    18:00 +19°C° 0 mm 6 m/s 757 mmHg 59%
    19:00 +17°C° 0 mm 5 m/s 757 mmHg 62%
    20:00 +15°C° 0 mm 5 m/s 757 mmHg 66%
    21:00 +14°C° 0 mm 4 m/s 757 mmHg 70%
    22:00 +14°C° 0 mm 4 m/s 757 mmHg 70%
    23:00 +13°C° 0 mm 4 m/s 757 mmHg 71%

    30 Mai, Sâmbătă

    Timp Temperatura Precipitaţii Vânt Presiune Umiditate
    00:00 +13°C° 0 mm 4 m/s 757 mmHg 72%
    01:00 +13°C° 0 mm 4 m/s 756 mmHg 75%
    02:00 +12°C° 0 mm 4 m/s 756 mmHg 77%
    03:00 +12°C° 0 mm 4 m/s 756 mmHg 79%
    04:00 +12°C° 0 mm 4 m/s 756 mmHg 77%
    05:00 +13°C° 0 mm 4 m/s 757 mmHg 76%
    06:00 +14°C° 0 mm 5 m/s 757 mmHg 74%
    07:00 +14°C° 0 mm 5 m/s 757 mmHg 70%
    08:00 +15°C° 0 mm 5 m/s 757 mmHg 66%
    09:00 +16°C° 0 mm 5 m/s 757 mmHg 62%
    10:00 +17°C° 0 mm 5 m/s 757 mmHg 60%
    11:00 +17°C° 0 mm 5 m/s 757 mmHg 59%
    12:00 +19°C° 0 mm 5 m/s 757 mmHg 57%
    13:00 +19°C° 0 mm 5 m/s 757 mmHg 58%
    14:00 +19°C° 0 mm 5 m/s 757 mmHg 58%
    15:00 +20°C° 0 mm 5 m/s 757 mmHg 59%
    16:00 +19°C° 0 mm 4 m/s 757 mmHg 61%
    17:00 +19°C° 0 mm 2 m/s 757 mmHg 63%
    18:00 +19°C° 0 mm 1 m/s 757 mmHg 65%
    19:00 +17°C° 0 mm 2 m/s 757 mmHg 71%
    20:00 +15°C° 0 mm 2 m/s 757 mmHg 77%
    21:00 +14°C° 0 mm 2 m/s 757 mmHg 83%
    22:00 +14°C° 0 mm 2 m/s 757 mmHg 84%
    23:00 +13°C° 0 mm 2 m/s 757 mmHg 85%
    Arată mai mult